www.pogodaiklimat.ru

Погода и климат >> Архив погоды >> Бахрейн >> Bahrain


АРХИВ ПОГОДЫ в Bahrain

Время (UTC), дата Ветер
(напр.,м/с)
 
Видим.   Явления Облачность Т
(С)
Тd
(С)
f
(%)
Тe
(С)
Тes
(С)
Комфортность P
(гПа)
Po
(гПа)
Тmin
(С)
Tmax
(С)
R
(мм)
R24
(мм)
S
(см)
00 9.12 С 2 14 км 1/0
[Ac trans]
+21.3 +12.8 58 +24 +24 комфорт 1017.1 1017.0
03 9.12 С 3 14 км 3/0
[Ac trans]
+21.5 +13.0 58 +24 +24 комфорт 1017.9 1018.0
06 9.12 С 4 20 км 3/0
[Ac trans]
+24.7 +11.5 44 +26 +29 жарко 1019.6 1020.0 +20.6
09 9.12 С 5 18 км 1/1 900 м
[Sc]
+25.7 +9.3 35 +26 +30 жарко 1018.1 1018.0
12 9.12 С 4 20 км 4/0
[Ac trans]
+24.7 +10.8 42 +26 +27 жарко 1017.1 1017.0
15 9.12 С 3 20 км ясно +23.7 +9.9 42 +25 +25 комфорт 1017.6 1018.0
18 9.12 С 3 20 км 3/0
[Ac trans]
+22.9 +10.8 46 +25 +25 комфорт 1018.4 1018.0 +25.9
21 9.12 С 3 16 км ясно +22.5 +12.9 55 +25 +25 комфорт 1017.3 1017.0
00 10.12 С 3 16 км 1/0
[Ac trans]
+22.3 +13.8 59 +25 +25 комфорт 1016.7 1017.0
03 10.12 С 3 20 км 3/3 900 м
[Sc]
+22.6 +13.5 56 +26 +26 жарко 1016.6 1017.0
06 10.12 СВ 4 20 км 1/0
[Ci fib]
+24.6 +13.7 51 +27 +30 жарко 1018.2 1018.0 +22.1
09 10.12 С 5 20 км 4/0
[Ac trans]
+25.0 +13.7 49 +27 +31 жарко 1016.4 1016.0
12 10.12 С 5 20 км 4/0
[Ac trans]
+24.9 +12.7 47 +27 +28 жарко 1015.3 1015.0
15 10.12 С 4 18 км 8/0
[Ac trans]
+23.8 +12.0 48 +26 +26 жарко 1016.6 1017.0
18 10.12 С 4 16 км 4/0
[Ac trans]
+23.3 +12.5 51 +26 +26 жарко 1017.8 1018.0 +25.5
21 10.12 С 5 20 км ясно +23.0 +13.3 54 +26 +26 жарко 1017.3 1017.0
00 11.12 С 5 20 км 4/0
[Ac trans]
+22.8 +13.4 55 +26 +26 жарко 1017.2 1017.0
03 11.12 С 6 20 км в посл. час дождь 9/0
[Ac trans]
+22.6 +14.3 59 +26 +26 жарко 1018.4 1018.0
06 11.12 С 6 20 км {дождь} 8/1 900 м
[Sc Ac cast]
+23.6 +14.3 56 +26 +27 жарко 1020.5 1021.0 +22.4
09 11.12 СЗ 7 18 км 6/1 900 м
[Sc Ac cast]
+24.6 +14.5 53 +27 +28 жарко 1019.1 1019.0
12 11.12 СЗ 8 16 км 3/1 900 м
[Sc Ac trans]
+23.8 +14.4 56 +26 +27 жарко 1018.0 1018.0 0.0
15 11.12 СЗ 8 16 км ясно +22.6 +12.4 52 +25 +25 комфорт 1019.2 1019.0
18 11.12 СЗ 7 16 км ясно +22.0 +13.5 59 +25 +25 комфорт 1020.1 1020.0 +24.9
21 11.12 СЗ 8 20 км ясно +21.4 +13.7 61 +24 +24 комфорт 1019.9 1020.0
00 12.12 СЗ 7 16 км ясно +20.4 +15.3 73 +23 +23 комфорт 1020.0 1020.0
03 12.12 СЗ 8 8000 м мгла 1/1 1050 м
[Sc]
+19.6 +15.9 79 +21 +21 комфорт 1020.3 1020.0
06 12.12 С 8 12 км ясно +22.5 +14.0 59 +26 +27 жарко 1021.7 1022.0 +19.5
09 12.12 СЗ 8 12 км 3/0
[Ci fib]
+23.7 +14.8 57 +26 +28 жарко 1019.7 1020.0
12 12.12 СЗ 7 14 км 4/4 900 м
[Sc diur, vesp]
+23.4 +14.5 57 +27 +28 душно 1019.4 1019.0
15 12.12 СЗ 6 14 км 1/1 900 м
[Sc]
+21.8 +14.6 64 +25 +25 комфорт 1020.2 1020.0
18 12.12 СЗ 5 14 км 3/3 750 м
[Sc]
+21.3 +14.6 66 +24 +24 комфорт 1020.8 1021.0 +24.1
21 12.12 СЗ 4 14 км 1/0
[Ac trans]
+20.7 +14.9 69 +24 +24 комфорт 1020.1 1020.0
00 13.12 З 4 14 км ясно +20.5 +16.0 75 +24 +24 комфорт 1020.0 1020.0
03 13.12 З 4 10 км мгла 3/0
[Ac trans]
+19.6 +15.3 76 +22 +22 комфорт 1021.0 1021.0
06 13.12 СЗ 6 14 км 3/0
[Ci fib]
+21.0 +16.3 75 +24 +26 комфорт 1022.9 1023.0 +19.3
09 13.12 СЗ 4 14 км ясно +23.3 +16.5 66 +28 +34 душно 1021.2 1021.0
12 13.12 СЗ 5 14 км ясно +23.3 +16.2 64 +28 +29 душно 1020.3 1020.0
15 13.12 СЗ 3 14 км ясно +22.2 +15.6 66 +26 +26 душно 1021.5 1022.0
18 13.12 СЗ 3 16 км ясно +21.6 +16.0 70 +25 +25 комфорт 1021.8 1022.0 +23.7
21 13.12 СЗ 2 16 км ясно +20.6 +15.7 73 +24 +24 комфорт 1021.5 1022.0
00 14.12 С 3 16 км ясно +20.4 +15.9 75 +24 +24 комфорт 1021.1 1021.0
03 14.12 СЗ 2 16 км ясно +20.1 +16.2 78 +24 +24 комфорт 1022.1 1022.0
06 14.12 С 4 16 км ясно +23.5 +15.9 62 +27 +30 душно 1023.8 1024.0 +19.8
09 14.12 СЗ 5 12 км 3/1 1050 м
[Sc Ac trans]
+24.1 +15.2 58 +27 +31 жарко 1022.2 1022.0
12 14.12 СЗ 5 12 км 1/0
[Ac trans]
+23.9 +15.5 59 +27 +28 жарко 1021.2 1021.0
15 14.12 С 3 12 км 4/0
[Ac trans]
+22.6 +14.8 61 +26 +26 жарко 1022.3 1022.0
18 14.12 СЗ 4 18 км 4/0
[Ac trans Ci fib]
+22.2 +17.0 72 +27 +27 душно 1022.7 1023.0 +24.7
21 14.12 СЗ 3 20 км ясно +21.5 +16.1 71 +25 +25 комфорт 1021.7 1022.0
00 15.12 СЗ 4 20 км ясно +21.8 +16.8 73 +26 +26 душно 1021.4 1021.0
03 15.12 З 3 12 км 4/0
[Ac trans]
+21.2 +18.8 86 +26 +26 душно 1022.1 1022.0
06 15.12 С 5 10 км мгла 4/0
[Ac trans]
+23.9 +18.4 71 +28 +30 душно 1023.7 1024.0 +20.6
09 15.12 С 7 10 км мгла 4/1 900 м
[Sc Ac trans]
+24.7 +17.3 63 +29 +31 душно 1022.3 1022.0
12 15.12 СЗ 8 10 км мгла 4/3 750 м
[Sc Ac trans]
+23.9 +17.5 67 +28 +28 душно 1021.3 1021.0
15 15.12 СЗ 7 12 км 3/0
[Ac trans]
+22.3 +16.4 69 +27 +27 душно 1022.9 1023.0
18 15.12 С 5 12 км 1/0
[Ac trans]
+21.6 +15.3 67 +25 +25 комфорт 1023.6 1024.0 +24.9
21 15.12 С 4 12 км ясно +21.5 +15.7 70 +25 +25 комфорт 1022.7 1023.0

 

Местоположение метеостанции Bahrain (Бахрейн): широта 26.27 долгота 50.65 высота над уровнем моря 2 м.

В архиве по умолчанию представлена погода в Bahrain за последнюю неделю. Архивные данные за месяц целиком и за предыдущие месяцы, начиная с января 2011 года, Вы можете получить, выбрав интересующий диапазон дат из раскрывающегося списка и нажав кнопку "Ввод!".


*Определитесь, кто Вы:
робот инопланетянин человек

Внимание! Время в таблицах - всемирное. Для получения местного времени необходимо прибавить поправку, которая в Bahrain равна 4 ч.

Смотрите также архив погоды в соседних городах и на ближайших метеорологических станциях:

Погода в Dhahran (Саудовская Аравия) (48 км)
Погода в King Fahd Int Airport (Саудовская Аравия) (85 км)
Погода в Dukhan (Катар) (97 км)
Погода в Doha (Катар) (146 км)
Погода в Hamad Int Airport (Катар) (147 км)
Погода в Al Ahsa (Саудовская Аравия) (159 км)
Погода в Abu Samra (Катар) (170 км)
Погода в Bandar Deyr (Иран) (215 км)
Погода в Bushehr (Иран) (299 км)
Погода в Bushehr Airport (Иран) (302 км)

Пояснения к столбцам:

Ветер - указаны скорость ветра в м/с - средняя за 10 мин, порывы в срок и между сроками (в фигурных скобках) и направление, откуда дует ветер: С - северный, СВ - северо-восточный, В - восточный, ЮВ - юго-восточный, Ю - южный, ЮЗ - юго-западный, З - западный, СЗ - северо-западный.
Видимость - горизонтальная дальность видимости в метрах или километрах. При видимости от 1 до 10 км при отсутствии осадков обычно наблюдается дымка, при ухудшении видимости до 1 км и менее - туман. В сухую погоду видимость может ухудшаться дымом, пылью или мглою.
Явления - указаны атмосферные явления, наблюдавшиеся в срок или в последний час перед сроком; фигурными скобками обозначены явления, наблюдавшиеся между сроками (за 1-3 часа до срока); квадратными скобками обозначены град или гололедные отложения с указанием их диаметра в мм.
Облачность - указаны через наклонную черту общая и нижняя облачность в баллах и высота нижней границы облаков в метрах; квадратными скобками обозначены формы облаков: Ci - перистые, Cs - перисто-слоистые, Cc - перисто-кучевые, Ac - высококучевые, As - высокослоистые, Sc - слоисто-кучевые, Ns - слоисто-дождевые, Cu - кучевые, Cb - кучево-дождевые. Подробнее классификацию облаков см. в Атласе облаков (PDF).
T - Температура воздуха - температура, измеренная на высоте 2 м над землей.
Td - Температура точки росы - температура, при понижении до которой содержащийся в воздухе водяной пар достигнет насыщения.
f - Относительная влажность воздуха - влажноcть воздуха, измеренная на высоте 2 м над землей.
Te - Эффективная температура - температура, которую ощущает одетый по сезону человек в тени. Характеристика душности погоды. При расчете учитывается влияние влажности воздуха и скорости ветра на теплоощущения человека.
Tes - Эффективная температура на солнце - температура, которую ощущает человек, с поправкой на солнечный нагрев. Характеристика знойности погоды. Зависит от высоты солнца над горизонтом, облачности и скорости ветра. Ночью, в пасмурную погоду, а также при ветре 12 м/с и более поправка равна нулю.
P - Атмосферное давление - приведенное к уровню моря атмосферное давление.
Po - Атмосферное давление - измеренное на уровне метеостанции атмосферное давление.
Tmin - Минимальная температура - минимум температуры воздуха на высоте 2 м над землей.
Tmax - Максимальная температура - максимум температуры воздуха на высоте 2 м над землей.
R - Количество осадков - Количество выпавших осадков за период времени, мм. При наведении курсора мыши на число - период времени, за который выпало указанное количество осадков.
R24 - Количество осадков - Количество выпавших осадков за 24 часа, мм.
S - Снежный покров - Высота снежного покрова, см. При наведении курсора мыши на число - состояние снежного покрова и степень покрытия местности в баллах.